GALAXY 33 (G-33)

Last updated on Tue Sep 22 2026 00:03:15 GMT+0000 (Coordinated Universal Time)

1 54026U 22128A 26264.49683372 .00000000 00000+0 00000+0 0 9992 2 54026 0.0176 168.0316 0001961 9.0334 229.1733 1.00271224 14702
UTC large
Height (km)
Speed (km/s)
/
Latitude / Longitude
Inclination (degrees)
Orbital Period (minutes)
Azimuth
Elevation
Range (km)
Doppler Factor

Next 0 passes for location: London (51.5072 / 0.1276)

No passes found over London.
GALAXY 33 (G-33)